EW5678 Weather Reports


time (UTC)temp
C
wind
direction
speed
KPH
gust
KPH
rain 1hr
cm
rain 24hr
cm
rain mn
cm
humidity
%
barometer
mb
20260504194447 17 198 19.3 38.6 0.00 0.00 0.00 53 999.6
20260504192647 17 217 17.7 38.6 0.00 0.00 0.00 52 999.7
20260504191747 17 214 17.7 37.0 0.00 0.00 0.00 52 999.8
20260504190847 17 204 17.7 37.0 0.00 0.00 0.00 53 999.8
20260504185047 17 198 16.1 32.2 0.00 0.00 0.00 51 1000.0
20260504184147 17 220 17.7 33.8 0.00 0.00 0.00 52 1000.1
20260504183247 17 209 16.1 32.2 0.00 0.00 0.00 51 1000.2
20260504182347 17 214 19.3 41.8 0.00 0.00 0.00 52 1000.4
20260504180547 17 215 16.1 35.4 0.00 0.00 0.00 52 1000.5
20260504175647 17 219 16.1 35.4 0.00 0.00 0.00 52 1000.7
20260504174746 17 208 16.1 32.2 0.00 0.00 0.00 52 1000.7
20260504173847 16 219 20.9 37.0 0.00 0.00 0.00 51 1000.7
20260504172946 16 223 24.1 40.2 0.00 0.00 0.00 49 1000.7
20260504172046 16 212 24.1 41.8 0.00 0.00 0.00 47 1000.8
20260504171146 17 214 19.3 45.1 0.00 0.00 0.00 46 1000.8
20260504170246 16 227 24.1 48.3 0.00 0.00 0.00 47 1000.8
20260504150546 16 241 19.3 35.4 0.00 0.00 0.00 42 1002.2
20260504141146 15 226 14.5 32.2 0.00 0.00 0.00 45 1002.5
20260504140246 15 228 17.7 30.6 0.00 0.00 0.00 47 1002.5
20260504110245 10 240 22.5 38.6 0.00 0.00 0.00 58 1003.1
20260504080244 10 256 16.1 30.6 0.00 0.00 0.00 52 1002.1
20260504050244 11 243 20.9 30.6 0.00 0.00 0.00 53 1001.5
20260504045344 11 250 19.3 29.0 0.00 0.00 0.00 51 1001.4
20260504044444 11 246 20.9 29.0 0.00 0.00 0.00 48 1001.4
20260504043543 11 251 16.1 29.0 0.00 0.00 0.00 46 1001.5
20260504042643 11 265 14.5 25.7 0.00 0.00 0.00 44 1001.4
20260504041743 11 253 16.1 25.7 0.00 0.00 0.00 44 1001.4
20260504040843 11 248 14.5 27.4 0.00 0.00 0.00 43 1001.5
20260504035943 12 242 14.5 27.4 0.00 0.00 0.00 42 1001.4
20260504035044 12 273 14.5 20.9 0.00 0.00 0.00 37 1001.4
20260504033243 12 291 12.9 20.9 0.00 0.00 0.00 38 1001.3
20260504032343 12 286 14.5 22.5 0.00 0.00 0.00 39 1001.3
20260504031443 12 290 12.9 20.9 0.00 0.00 0.00 39 1001.4
20260504030543 12 266 11.3 20.9 0.00 0.00 0.00 38 1001.4
20260504025643 12 287 12.9 20.9 0.00 0.00 0.00 38 1001.3
20260504023843 13 281 24.1 30.6 0.00 0.00 0.00 36 1001.3
20260504022943 13 284 24.1 29.0 0.00 0.00 0.00 35 1001.3
20260504022043 13 280 20.9 25.7 0.00 0.00 0.00 35 1001.3
20260504021143 13 281 20.9 24.1 0.00 0.00 0.00 36 1001.3
20260504020243 13 279 20.9 24.1 0.00 0.00 0.00 36 1001.3
20260504015343 12 279 20.9 24.1 0.00 0.00 0.00 36 1001.3
20260504014443 12 278 16.1 22.5 0.00 0.00 0.00 37 1001.3
20260504013543 12 277 16.1 20.9 0.00 0.00 0.00 37 1001.2
20260504012643 12 279 17.7 20.9 0.00 0.00 0.00 37 1001.0
20260504011743 12 268 11.3 19.3 0.00 0.00 0.00 38 1001.0
20260504010843 12 276 14.5 20.9 0.00 0.00 0.00 37 1001.0
20260504005943 12 275 16.1 20.9 0.00 0.00 0.00 37 1000.8
20260504005042 12 276 14.5 19.3 0.00 0.00 0.00 36 1000.7
20260504004143 12 279 17.7 20.9 0.00 0.00 0.00 36 1000.6
20260504003242 12 278 17.7 20.9 0.00 0.00 0.00 36 1000.5
20260504002343 12 279 19.3 24.1 0.00 0.00 0.00 36 1000.3
20260504001443 12 280 19.3 24.1 0.00 0.00 0.00 36 1000.2
20260504000543 12 279 16.1 22.5 0.00 0.00 0.00 37 1000.0
20260503234742 12 288 22.5 30.6 0.00 0.00 0.00 42 999.8
20260503233842 12 289 22.5 32.2 0.00 0.00 0.00 42 999.7
20260503232942 12 291 22.5 32.2 0.00 0.00 0.00 43 999.7
20260503232042 12 289 22.5 35.4 0.00 0.00 0.00 42 999.5
20260503231142 12 292 27.4 40.2 0.00 0.00 0.00 42 999.4
20260503230242 12 296 27.4 40.2 0.00 0.00 0.00 41 999.4
20260503224442 12 297 24.1 38.6 0.00 0.00 0.00 45 999.4
20260503222642 12 299 20.9 37.0 0.00 0.00 0.00 46 999.3
20260503221742 12 301 24.1 37.0 0.00 0.00 0.00 40 999.2
20260503220842 12 300 25.7 40.2 0.00 0.00 0.00 40 999.3
20260503215042 12 302 30.6 46.7 0.00 0.00 0.00 40 999.2
20260503214142 12 307 30.6 45.1 0.00 0.00 0.00 40 999.2
20260503213242 12 304 24.1 35.4 0.00 0.00 0.00 43 999.1
20260503212342 12 304 24.1 38.6 0.00 0.00 0.00 50 999.1
20260503211442 12 301 22.5 37.0 0.00 0.00 0.00 48 999.1
20260503210542 11 299 35.4 43.5 0.00 0.00 0.00 47 999.0
20260503203842 11 301 25.7 43.5 0.00 0.00 0.00 41 999.0
20260503202042 11 306 29.0 45.1 0.00 0.00 0.00 42 999.0
20260503201142 11 304 33.8 46.7 0.00 0.00 0.00 43 999.1
20260503200242 11 301 30.6 48.3 0.00 0.00 0.00 45 999.2
20260503195342 10 299 33.8 53.1 0.00 0.00 0.00 46 999.2